STARLINK-31689, 59567

Orbit data source: Space-Track

STARLINK-31689, 59567 is a payload satellite owned by SpaceX/Seattle (US) in LEO that was launched on Tue, 23 Apr 2024 UTC via an FALCON 9 launch vehicle from the Air Force Eastern Test Range (AFETR). Payload-class satellites include a variety of spacecraft equipped with specific instruments for various scientific and technological missions. These include communications satellites like Starlink; space stations such as the ISS; scientific satellites like the Hubble; Earth observation satellites from companies like Planet Labs, Umbra, and HawkEye 360; GPS; miniature CubeSats for education and research; and military/defense satellites.

Loading next visibility...
Identifier
59567, 2024-076D
Orbit
LEO
Country
Flag of USUS
Related business
Manufacturer
SpaceX/Seattle
Mission
Operational Commercial Communications
Bus & Motor
STARLINK V2M, Unknown motor
Mass
730 kg wet, ~700 kg dry
Launch date (UTC)
2024-04-23 (2 years ago)
Launch vehicle
FALCON 9
Launch site
Air Force Eastern Test Range (AFETR)
Object type
Payload
Rocket body
Debris
Shape & HBR
Box + 2 Pan, 17.7 m
Radar Cross Section
33.884 m², Large (>1 m²)

Expand to show TLE details & history
Last TLE update: 1 day ago

TLE from 1 day ago
0 STARLINK-31689
1 59567U 24076D   25348.44253319 -.00000764  00000-0 -18269-4 0  9993
2 59567  43.0004 127.1154 0001116 263.8949  96.1776 15.27565932 93504
Epoch: 2025-12-14T10:37Z
TLE epoch observation values (Epoch: 2025-12-14T10:37:14.867Z)
Latitude
0.00001°
Longitude
-115.55192°
Altitude
482.949 km
Speed
7.626 km/s
True Right ascension
08h 28m 27s
True Declination
0° 00' 00"
Sunlit
Object was in full shadow at epoch
Visualization orbit readout
Latitude
Unknown
Longitude
Unknown
Altitude
Unknown
Speed
Unknown
Apparent Right ascension
Unknown
Apparent Declination
Unknown
Sunlit
N/A
Visualization observer readout
Local Sidereal Time
13:24:49
Azimuth
Unknown
Elevation
Unknown
Doppler factor
Unknown
Orbital elements
Apogee altitude
485.802 km
Perigee altitude
484.27 km
Semi-major axis
6,863.173 km
Eccentricity
0.00011
Inclination
43.0004°
RAAN
127.1154°
Arg. of periapsis
263.8949°
True anomaly
96.19031°
Mean anomaly
96.1776°
Eccentric anomaly
96.18396°
Mean motion
3.81729 °/min
Orbital period
94.31 mins
BSTAR
-0.000018269
Loading maneuver chart data...
Computing Atmospheric mass density...
Loading historical data...
Loading historical data...
Loading historical data...
Loading historical data...
Loading historical data...
Loading historical data...
Loading historical data...

Documentation

Showing up to 5 results
|